Regional Weather Roundup
Issued by NWS San Diego, CA

Home | Current Version | Previous Version | Text Only | Print | Product List | Glossary On
Versions: 1 2 3 4 5 6 7 8 9 10 11 12 13 14 15 16 17 18 19 20 21 22 23 24 25 26 27 28 29 30 31 32 33 34 35 36 37 38 39 40 41 42 43 44 45 46 47 48 49 50
000
ASUS46 KSGX 021710
RWRSGX

SAN DIEGO HOURLY WEATHER ROUNDUP
NATIONAL WEATHER SERVICE SAN DIEGO CA
1000 AM PDT THU OCT 02 2014

NOTE: "FAIR" INDICATES FEW OR NO CLOUDS BELOW 12,000 FEET WITH NO
SIGNIFICANT WEATHER AND/OR OBSTRUCTIONS TO VISIBILITY.

CAZ042-043-060-061-PZZ750-775-021800-

GREATER SAN DIEGO AREA

CITY           SKY/WX    TMP DP  RH WIND       PRES   REMARKS
LINDBERGH FLD  SUNNY     77  62  59 NW5       29.96S
POINT LOMA       N/A     74  65  73 NW7         N/A
NATIONAL CITY    N/A     76  66  70 SW1       29.95S
CHULA VISTA      N/A     76  65  70 CALM      29.88S
IMPERIAL BEACH SUNNY     75  65  70 NW7       29.95S
BROWN FIELD    SUNNY     81  56  42 NW5       29.95S
MIRAMAR MCAS   SUNNY     82  51  34 CALM      29.96S
MONTGOMERY FLD SUNNY     82  52  35 CALM      29.96S

$$

NORTH SAN DIEGO COUNTY

CITY           SKY/WX    TMP DP  RH WIND       PRES   REMARKS
CAMP PENDLETON SUNNY     90  29  11 NE12      29.94S
OCEANSIDE AP   SUNNY     84  49  29 N3        29.94S
OCEANSIDE HBR    N/A     69  65  86 W3        29.98S
VISTA            N/A     84  51  31 CALM      29.94S
CARLSBAD       SUNNY     83  46  27 NW3       29.95S
DEL MAR          N/A     70  67  91 CALM      29.98R
LA JOLLA SCRIP   N/A     69  67  93 CALM      29.93S
FALLBROOK        N/A     85  32  14 S7        29.96S
ESCONDIDO        N/A     87  48  25 CALM      29.97S
SAN MARCOS       N/A     83  51  33 CALM      29.94R
POWAY            N/A     81  58  45 CALM      29.97R

$$

EAST SAN DIEGO COUNTY

CITY           SKY/WX    TMP DP  RH WIND       PRES   REMARKS
RAMONA         SUNNY     87  27  11 E16G23    30.00S
SANTEE LAKES     N/A     76  60  58 CALM      29.97S
LA MESA          N/A     84  52  32 CALM      29.89S
JAMUL            N/A     88  41  19 SW6       29.95S
MT. LAGUNA OBS   N/A     60  24  24 N20       29.78R
CAMPO            N/A     77  27  15 NE25G33   30.04R

$$

ORANGE COUNTY AND THE LOS ANGELES BASIN

CITY           SKY/WX    TMP DP  RH WIND       PRES   REMARKS
JOHN WAYNE AP  SUNNY     81  62  52 SW5       29.95S
LAGUNA BEACH     N/A     72  66  81 CALM      29.91S
LAKE FOREST FR   N/A     87  32  14 SW3       29.85R
SANTA ANA        N/A     70  67  91 CALM      29.90S
HUNTINGTON BCH   N/A     82  62  50 NW2       29.98R
LOS ALAMITOS   SUNNY     87  36  16 E10       29.95R
FULLERTON      SUNNY     91  20   7 E14       29.94S
LONG BEACH     SUNNY     83  51  33 NW7       29.96R
L.A. AP        SUNNY     84  42  22 VRB7      29.97R
L.A. DOWNTOWN  SUNNY     84  44  24 CALM      29.96S

$$

THE INLAND EMPIRE

CITY           SKY/WX    TMP DP  RH WIND       PRES   REMARKS
CORONA         SUNNY     86  25  11 E12       30.00S
CHINO          SUNNY     86  30  13 SE13      30.00S
ONTARIO        SUNNY     81  40  23 W5        30.00S
SAN BERNARDINO SUNNY    N/A N/A N/A CALM      30.03S
RIVERSIDE AP   SUNNY     84  36  18 SE3       30.01S
RIV CYN CREST    N/A     80  48  31 CALM      30.00S
MORENO VALLEY    N/A     82  33  17 CALM      29.22R
MARCH ARB      SUNNY     83  17   8 NE14      30.04S
HORSETHIEF CYN   N/A     83  18   9 N2        30.02S
PERRIS           N/A     81  25  13 S5        30.03R
MENIFEE          N/A     78  53  42 E1        30.09S
HEMET EAST       N/A     77  37  23 CALM      30.00R
FRENCH VALLEY  FAIR      77  50  38 N5        30.03S
TEMECULA         N/A     75  58  55 SW2       29.97F

$$

SAN BERNARDINO AND RIVERSIDE COUNTY MOUNTAINS

CITY           SKY/WX    TMP DP  RH WIND       PRES   REMARKS
BIG BEAR AP    SUNNY     57   9  14 E8        30.33S
ANGELUS OAKS     N/A     64  26  24 CALM      29.96S
PINE COVE        N/A     64  26  24 CALM      29.93R

$$

SOUTHERN DESERT INCLUDING THE COACHELLA VALLEY

CITY           SKY/WX    TMP DP  RH WIND       PRES   REMARKS
PALM SPRINGS   SUNNY     88  17   7 NW6       30.05R
THOUSAND PALMS   N/A     84  33  16 S1        30.01R
PALM DESERT      N/A     86  31  14 CALM      27.98
THERMAL        SUNNY     86  28  12 N3        30.00R
BLYTHE         SUNNY     82  25  12 N20       30.05R
IMPERIAL AP    SUNNY     86  25  11 NE15      30.00S
EL CENTRO NAS  SUNNY     87  28  12 NE8       30.01R
YUMA AZ        SUNNY     86  27  11 N21G30    29.98S
MEXICALI       SUNNY     84  28  13 N7        30.01

$$

UPPER DESERT

CITY           SKY/WX    TMP DP  RH WIND       PRES   REMARKS
VICTORVILLE AP SUNNY     72  19  14 N7        30.19S
HESPERIA         N/A     68  22  17 N2        30.22R
APPLE VALLEY     N/A     71  26  18 CALM      30.21S
PALMDALE       SUNNY     67  19  16 NE3       30.18S
LANCASTER      SUNNY     70  17  13 E8        30.18R
EDWARDS AFB    SUNNY     69  13  11 NE6       30.17R
DAGGETT        SUNNY     74  19  12 CALM      30.17R
29 PALMS N     SUNNY     73  25  16 NW5       30.22R
NEEDLES        SUNNY     80  25  13 N25G37    30.09R

$$

REGIONAL REPORTS

CITY           SKY/WX    TMP DP  RH WIND       PRES   REMARKS
SANTA BARBARA  SUNNY     76  61  59 SE6       29.96S
SANDBERG       SUNNY     70  11  10 E20G29    30.24R
MT. WILSON       N/A     73  14  10 MISG        N/A
LAS VEGAS NV   SUNNY     70  26  19 VRB3      30.20R
PHOENIX AZ     SUNNY     82  34  17 NE14      30.03R
TIJUANA        SUNNY     88  34  14 E6        29.97S
ENSENADA NW      N/A     72  32  22 W6        29.91S

$$

OFFSHORE ISLANDS

CITY           SKY/WX    TMP DP  RH WIND       PRES   REMARKS
CATALINA ARPT  SUNNY     84  33  16 E10       30.03R HAZE
SAN CLEMENTE I SUNNY     73  65  75 N7        29.98R
SAN NICOLAS IS SUNNY     70  59  68 NE5       29.98R

$$

MARINE AND OFFSHORE BUOY REPORTS

STATION/POSITION SKY/WX   TEMP    WIND        PRES    SWELL
                          AIR SEA DIR/SP/G            HT/PER/DIR
                          (F)     (DEG/KT/KT) (MB)    (FT/S/D)
TANNER BANKS               67 69  340/  2/  2 1014.3R   7/310/11
S CLEMENTE BASIN           71 71   10/  8/ 10 1014.1R   3/210/19
SAN NICOLAS IS.               66                N/A     3/300/11
SO. S. ROSA ISLA           65 65  170/  4/  6 1014.1R   7/11
W. S. BARBARA CH           66 65  100/  4/  6 1013.8R   7/310/11
M. S. BARBARA CH           63 65   80/  6/  6 1014.5R
S. MONICA BASIN            65 70  210/  4/  4 1014.3R   3/220/14
S PEDRO CHANNEL               71                N/A     2/250/11
DANA POINT                    69                N/A     2/200/20
CMP PENDLETON NS              70                N/A     3/220/20
OCEANSIDE OFFSHR              73                N/A     2/200/20
TORREY PINES OTR              72                N/A     2/220/14
LA JOLLA 1                 70 71  360/  4/  5 1014.5R
MISSION BAY BUOY              72                N/A     2/210/20
SAN DIEGO BAY                 73              1014.7S
POINT LOMA SOUTH              72                N/A     3/220/20

$$




USA.gov is the U.S. government's official web portal to all federal, state and local government web resources and services.